SWR188 LSZH-ZSPD

Flight info

Callsign SWR188
Flight time N/A
Altitude 35000
Route DEGES Z2 XEBIX DCT UMVEG DCT DIMLO DCT INVED DCT TOSVI DCT DINRO DCT UDROS DCT CRM DCT ROLIN/N0469F370 DCT TETRO DCT BARAD M747 LUSAL N701 LARGI B701 KRS A480 OTBOR/K0870F370 N147 GENDI/K0859F390 N147 GENGA N143 RUDIZ N161 SARIN/K0859S1190 A368 FKG W188 GOVSA W66 DKO/K0869S1250 W64 NUTLO B208 CGO W129 KAMDA W128 FYG B208 HFE R343 SASAN SAS81A
Aircraft A343/H-SDE2E3FGHIJ4J5M1RWXY/LB1D1

Departure

Time 2026-04-26 22:41
Airport Zürich Airport (LSZH)

Arrival

Time N/A
Airport Shanghai Pudong International Airport (ZSPD)
Time Latitude Longitude Altitude Speed Heading
2026-04-26 21:48 47.46038 8.55736 1409 ft 0 kts
2026-04-26 22:24 47.46032 8.55735 1415 ft 3 kts
2026-04-26 22:24 47.46013 8.55733 1410 ft 3 kts
2026-04-26 22:24 47.45994 8.55730 1412 ft 3 kts
2026-04-26 22:24 47.45976 8.55727 1413 ft 3 kts
2026-04-26 22:25 47.45958 8.55719 1409 ft 3 kts 49°
2026-04-26 22:25 47.45948 8.55694 1414 ft 3 kts 94°
2026-04-26 22:25 47.45950 8.55678 1413 ft 0 kts 86°
2026-04-26 22:30 47.45949 8.55678 1413 ft 1 kts 86°
2026-04-26 22:31 47.45949 8.55729 1415 ft 9 kts 90°
2026-04-26 22:31 47.45939 8.55852 1414 ft 15 kts 95°
2026-04-26 22:31 47.45930 8.56036 1417 ft 20 kts 99°
2026-04-26 22:31 47.45914 8.56250 1416 ft 15 kts 82°
2026-04-26 22:32 47.45975 8.56317 1418 ft 10 kts
2026-04-26 22:32 47.46005 8.56322 1420 ft 0 kts
2026-04-26 22:38 47.46007 8.56322 1420 ft 2 kts
2026-04-26 22:38 47.46067 8.56332 1419 ft 12 kts
2026-04-26 22:38 47.46156 8.56364 1416 ft 14 kts
2026-04-26 22:38 47.46231 8.56307 1417 ft 12 kts 316°
2026-04-26 22:39 47.46250 8.56281 1420 ft 0 kts 317°
2026-04-26 22:40 47.46339 8.56158 1414 ft 47 kts 317°
2026-04-26 22:40 47.46731 8.55625 1406 ft 104 kts 317°
2026-04-26 22:40 47.47382 8.54734 1403 ft 149 kts 317°
2026-04-26 22:41 47.48219 8.53613 1629 ft 168 kts 319°
2026-04-26 22:41 47.49084 8.52477 2255 ft 167 kts 324°
2026-04-26 22:41 47.50113 8.51614 2718 ft 175 kts 334°
2026-04-26 22:41 47.51077 8.50316 2916 ft 202 kts 306°
2026-04-26 22:42 47.51630 8.48275 3090 ft 227 kts 283°
2026-04-26 22:42 47.51767 8.45876 3444 ft 243 kts 271°
2026-04-26 22:42 47.51517 8.43427 4189 ft 240 kts 245°
2026-04-26 22:42 47.50454 8.41624 4882 ft 235 kts 204°
2026-04-26 22:43 47.48892 8.41161 5537 ft 229 kts 172°
2026-04-26 22:43 47.47393 8.41903 6140 ft 229 kts 150°
2026-04-26 22:43 47.46157 8.43382 6751 ft 230 kts 126°
2026-04-26 22:43 47.45579 8.45600 7100 ft 242 kts 85°
2026-04-26 22:44 47.45958 8.48061 7331 ft 260 kts 66°
2026-04-26 22:44 47.46533 8.50660 7710 ft 272 kts 88°
2026-04-26 22:44 47.46361 8.53479 8226 ft 278 kts 98°
2026-04-26 22:44 47.46112 8.56345 8812 ft 284 kts 94°
2026-04-26 22:45 47.46047 8.59291 9395 ft 289 kts 90°
2026-04-26 22:45 47.46077 8.62281 9983 ft 293 kts 88°
2026-04-26 22:45 47.46146 8.65288 10467 ft 300 kts 87°
2026-04-26 22:45 47.46240 8.68448 10717 ft 315 kts 86°
2026-04-26 22:46 47.46352 8.71755 10972 ft 329 kts 86°
2026-04-26 22:46 47.46474 8.75203 11215 ft 343 kts 86°
2026-04-26 22:46 47.46603 8.78792 11471 ft 357 kts 86°
2026-04-26 22:46 47.46600 8.82557 11703 ft 370 kts 96°
2026-04-26 22:47 47.46165 8.86375 11972 ft 382 kts 101°
2026-04-26 22:47 47.45599 8.90233 12372 ft 389 kts 102°
2026-04-26 22:47 47.45019 8.94185 12835 ft 395 kts 102°
2026-04-26 22:47 47.44440 8.98184 13350 ft 399 kts 102°
2026-04-26 22:48 47.43860 9.02212 13879 ft 403 kts 102°
2026-04-26 22:48 47.43282 9.06237 14375 ft 407 kts 102°
2026-04-26 22:48 47.42686 9.10339 14892 ft 409 kts 102°
2026-04-26 22:48 47.42088 9.14455 15410 ft 411 kts 101°
2026-04-26 22:49 47.41594 9.18624 15917 ft 413 kts 94°
2026-04-26 22:49 47.41663 9.22889 16390 ft 415 kts 82°
2026-04-26 22:49 47.41935 9.25684 16723 ft 415 kts 78°
2026-04-26 22:49 47.42505 9.29884 17245 ft 417 kts 75°
2026-04-26 22:50 47.43402 9.35433 17935 ft 419 kts 74°
2026-04-26 22:50 47.43868 9.38216 18292 ft 421 kts 74°
2026-04-26 22:50 47.44568 9.42450 18750 ft 423 kts 74°
2026-04-26 22:50 47.45252 9.46703 19157 ft 427 kts 74°
2026-04-26 22:51 47.45923 9.51006 19599 ft 430 kts 75°
2026-04-26 22:51 47.46571 9.55283 19985 ft 434 kts 76°
2026-04-26 22:51 47.46992 9.59753 20384 ft 439 kts 84°
2026-04-26 22:51 47.47014 9.64295 20782 ft 444 kts 89°
2026-04-26 22:52 47.46877 9.68882 21168 ft 448 kts 91°
2026-04-26 22:52 47.46650 9.73499 21559 ft 451 kts 92°
2026-04-26 22:52 47.46380 9.78120 21939 ft 454 kts 93°
2026-04-26 22:52 47.46096 9.82742 22312 ft 456 kts 93°
2026-04-26 22:53 47.45808 9.87442 22705 ft 459 kts 92°
2026-04-26 22:53 47.45529 9.92119 23060 ft 462 kts 92°
2026-04-26 22:53 47.45250 9.96862 23411 ft 464 kts 92°
2026-04-26 22:53 47.44973 10.01645 23773 ft 467 kts 92°
2026-04-26 22:54 47.44696 10.06464 24067 ft 470 kts 93°
2026-04-26 22:54 47.44422 10.11222 24329 ft 473 kts 93°
2026-04-26 22:54 47.44130 10.16011 24635 ft 475 kts 95°
2026-04-26 22:54 47.43621 10.20865 24952 ft 477 kts 98°
2026-04-26 22:55 47.43029 10.25711 25249 ft 480 kts 99°
2026-04-26 22:55 47.42394 10.30581 25523 ft 482 kts 99°
2026-04-26 22:55 47.41735 10.35456 25820 ft 483 kts 99°
2026-04-26 22:55 47.41076 10.40261 26132 ft 485 kts 99°
2026-04-26 22:56 47.40400 10.45160 26423 ft 487 kts 100°
2026-04-26 22:56 47.39724 10.50100 26642 ft 490 kts 100°
2026-04-26 22:56 47.39076 10.55056 26905 ft 491 kts 99°
2026-04-26 22:56 47.38455 10.59959 27160 ft 493 kts 99°
2026-04-26 22:57 47.37827 10.64961 27410 ft 495 kts 99°
2026-04-26 22:57 47.37196 10.69957 27708 ft 495 kts 99°
2026-04-26 22:57 47.36556 10.74982 27934 ft 498 kts 99°
2026-04-26 22:57 47.35910 10.80024 28167 ft 499 kts 99°
2026-04-26 22:58 47.35269 10.84996 28412 ft 501 kts 100°
2026-04-26 22:58 47.34609 10.90084 28625 ft 503 kts 100°
2026-04-26 22:58 47.33945 10.95171 28815 ft 505 kts 100°
2026-04-26 22:58 47.33285 11.00209 29035 ft 506 kts 100°
2026-04-26 22:59 47.32614 11.05300 29374 ft 504 kts 100°
2026-04-26 22:59 47.31943 11.10386 29657 ft 504 kts 100°
2026-04-26 22:59 47.31272 11.15447 29950 ft 504 kts 100°
2026-04-26 22:59 47.30598 11.20514 30264 ft 503 kts 100°
2026-04-26 23:00 47.29921 11.25582 30497 ft 503 kts 99°
2026-04-26 23:00 47.29251 11.30582 30691 ft 503 kts 101°
2026-04-26 23:00 47.28570 11.35650 30812 ft 505 kts 101°
2026-04-26 23:00 47.27888 11.40717 31040 ft 504 kts 101°
2026-04-26 23:01 47.27202 11.45788 31312 ft 503 kts 101°
2026-04-26 23:01 47.26517 11.50828 31609 ft 501 kts 101°
2026-04-26 23:01 47.25831 11.55863 31868 ft 501 kts 101°
2026-04-26 23:01 47.25144 11.60889 32077 ft 500 kts 101°
2026-04-26 23:02 47.24455 11.65911 32333 ft 499 kts 101°
2026-04-26 23:02 47.23772 11.70867 32476 ft 500 kts 101°
2026-04-26 23:02 47.23078 11.75895 32666 ft 501 kts 101°
2026-04-26 23:02 47.22383 11.80912 32867 ft 500 kts 101°
2026-04-26 23:03 47.21685 11.85931 33126 ft 499 kts 101°
2026-04-26 23:03 47.20988 11.90938 33373 ft 498 kts 101°
2026-04-26 23:03 47.20395 11.95889 33585 ft 497 kts 98°
2026-04-26 23:03 47.19905 12.00939 33785 ft 497 kts 97°
2026-04-26 23:04 47.19462 12.05963 33999 ft 496 kts 96°
2026-04-26 23:04 47.19023 12.10996 34222 ft 495 kts 96°
2026-04-26 23:04 47.18571 12.16017 34378 ft 495 kts 97°
2026-04-26 23:04 47.18101 12.21039 34524 ft 495 kts 97°
2026-04-26 23:05 47.17623 12.25994 34680 ft 494 kts 97°
2026-04-26 23:05 47.17131 12.30984 34822 ft 494 kts 97°
2026-04-26 23:05 47.16629 12.36000 34965 ft 494 kts 97°
2026-04-26 23:05 47.16124 12.41006 35099 ft 494 kts 97°
2026-04-26 23:06 47.15619 12.46000 35188 ft 495 kts 97°
2026-04-26 23:06 47.14601 12.56005 35173 ft 498 kts 97°
2026-04-26 23:07 47.13573 12.66037 35178 ft 496 kts 97°
2026-04-26 23:07 47.12694 12.74551 35169 ft 496 kts 97°
2026-04-26 23:08 47.11653 12.84550 35164 ft 496 kts 98°
2026-04-26 23:08 47.10602 12.94553 35175 ft 495 kts 98°
2026-04-26 23:09 47.09549 13.04494 35168 ft 495 kts 98°
2026-04-26 23:09 47.08480 13.14502 35176 ft 495 kts 98°
2026-04-26 23:10 47.07401 13.24508 35173 ft 495 kts 98°
2026-04-26 23:10 47.06322 13.34440 35171 ft 497 kts 99°
2026-04-26 23:11 47.05220 13.44482 35177 ft 498 kts 99°
2026-04-26 23:11 47.04111 13.54517 35175 ft 497 kts 99°
2026-04-26 23:12 47.03001 13.64484 35185 ft 498 kts 99°
2026-04-26 23:12 47.01873 13.74525 35195 ft 500 kts 99°
2026-04-26 23:13 47.00737 13.84565 35194 ft 501 kts 99°
2026-04-26 23:13 46.99581 13.94682 35200 ft 501 kts 99°
2026-04-26 23:14 46.98426 14.04713 35200 ft 501 kts 99°
2026-04-26 23:14 46.97256 14.14802 35210 ft 502 kts 99°
2026-04-26 23:15 46.96080 14.24845 35219 ft 503 kts 100°
2026-04-26 23:15 46.94891 14.34931 35221 ft 502 kts 100°
2026-04-26 23:16 46.93692 14.45026 35232 ft 502 kts 100°
2026-04-26 23:16 46.92485 14.55099 35240 ft 505 kts 100°
2026-04-26 23:17 46.91264 14.65222 35243 ft 505 kts 100°
2026-04-26 23:17 46.90040 14.75286 35248 ft 505 kts 100°
2026-04-26 23:18 46.88796 14.85435 35270 ft 505 kts 100°
2026-04-26 23:18 46.87553 14.95499 35269 ft 506 kts 100°
2026-04-26 23:19 46.86292 15.05626 35282 ft 506 kts 100°
2026-04-26 23:19 46.85029 15.15703 35283 ft 506 kts 100°
2026-04-26 23:20 46.83748 15.25844 35284 ft 506 kts 101°
2026-04-26 23:20 46.82464 15.35939 35289 ft 505 kts 101°
2026-04-26 23:21 46.81177 15.45975 35288 ft 505 kts 101°
2026-04-26 23:21 46.79876 15.56049 35288 ft 505 kts 101°
2026-04-26 23:22 46.78572 15.66072 35290 ft 505 kts 101°
2026-04-26 23:22 46.77252 15.76147 35284 ft 505 kts 101°
2026-04-26 23:23 46.75924 15.86215 35285 ft 505 kts 101°
2026-04-26 23:23 46.74586 15.96284 35282 ft 505 kts 101°
2026-04-26 23:24 46.73239 16.06344 35283 ft 505 kts 101°
2026-04-26 23:24 46.71889 16.16361 35282 ft 505 kts 101°
2026-04-26 23:25 46.70525 16.26413 35280 ft 505 kts 101°
2026-04-26 23:25 46.69154 16.36447 35281 ft 505 kts 101°